Belleville, IL

4:11 AM CDT on March 23, 2017 (GMT -0500)
Scott Air Force Base-Midamerica

Weather History for KBLV - February, 2014

Change the Weather History Date:

Saturday, February 1, 2014

  Actual Average Record
Temperature  
Mean Temperature 34 °F -  
Max Temperature 40 °F 44 °F 69 °F (1989)
Min Temperature 28 °F 25 °F -16 °F (1965)
Degree Days  
Heating Degree Days 31    
Moisture  
Dew Point 35 °F    
Average Humidity 100    
Maximum Humidity 100    
Minimum Humidity 93    
Precipitation  
Precipitation 0.37 in - - ()
Sea Level Pressure  
Sea Level Pressure 29.90 in    
Wind  
Wind Speed 5 mph (North)    
Max Wind Speed 15 mph    
Max Gust Speed -    
Visibility 4 miles    
Events Rain , Snow    
Averages and records for this station are not official NWS values.
T = Trace of Precipitation, MM = Missing Value Source: NWS Daily Summary

Daily Weather History Graph

Daily Weather History Graph

Search for Another Location

Airport or City:

Trip Planner

Search our weather history database for the weather conditions in past years. The results will help you decide how hot, cold, wet, or windy it might be!

Date:

Astronomy

Feb. 01, 2014 Rise Set
Actual Time 7:04 AM CST 5:21 PM CST
Civil Twilight 6:36 AM CST 5:49 PM CST
Nautical Twilight 6:05 AM CST 6:21 PM CST
Astronomical Twilight 5:33 AM CST 6:52 PM CST
Moon 7:56 AM CST (2/1) 7:54 PM CST (2/1)
Length of Visible Light 11h 12m
Length of Day
10h 16m
Waxing Crescent, 5% of the Moon is Illuminated
Feb 1
Waxing Crescent
Feb 6
First Quarter
Feb 14
Full
Feb 22
Last Quarter
Mar 1
New

Hourly Weather History & Observations

Time (CST) Temp. Windchill Dew Point Humidity Pressure Visibility Wind Dir Wind Speed Gust Speed Precip Events Conditions
12:13 AM 32.0 °F 26.4 °F 32.0 °F 100% 29.95 in 3.0 mi East 5.8 mph - N/A   Overcast
12:18 AM 32.0 °F 27.5 °F 32.0 °F 100% 29.96 in 2.5 mi East 4.6 mph - N/A   Overcast
12:28 AM 32.0 °F 27.5 °F 32.0 °F 100% 29.96 in 2.0 mi East 4.6 mph - N/A   Overcast
12:38 AM 32.0 °F 26.4 °F 32.0 °F 100% 29.95 in 1.8 mi East 5.8 mph - N/A   Overcast
12:43 AM 32.0 °F 27.5 °F 32.0 °F 100% 29.94 in 1.5 mi East 4.6 mph - N/A   Overcast
12:44 AM 32.0 °F 27.5 °F 32.0 °F 100% 29.96 in 1.5 mi East 4.6 mph - N/A   Overcast
12:53 AM 32.0 °F 28.7 °F 32.0 °F 100% 29.95 in 1.5 mi ENE 3.5 mph - N/A   Mostly Cloudy
12:58 AM 32.0 °F - 32.0 °F 100% 29.97 in 1.5 mi Calm Calm - N/A   Mostly Cloudy
1:03 AM 32.0 °F 26.4 °F 32.0 °F 100% 29.94 in 1.5 mi East 5.8 mph - N/A   Mostly Cloudy
1:08 AM 32.0 °F 27.5 °F 32.0 °F 100% 29.94 in 1.2 mi East 4.6 mph - N/A   Mostly Cloudy
1:38 AM 32.0 °F 27.5 °F 32.0 °F 100% 29.93 in 1.0 mi ENE 4.6 mph - N/A   Mist
1:43 AM 32.0 °F - 32.0 °F 100% 29.94 in 1.0 mi NNE 2.3 mph - N/A   Mist
1:47 AM 32.0 °F - 32.0 °F 100% 29.96 in 1.0 mi Calm Calm - N/A   Mist
1:48 AM 32.0 °F - 32.0 °F 100% 29.94 in 1.2 mi NNE 2.3 mph - N/A   Mostly Cloudy
1:53 AM 32.0 °F - 32.0 °F 100% 29.94 in 1.0 mi NNE 2.3 mph - N/A   Mist
1:58 AM 32.0 °F 28.7 °F 32.0 °F 100% 29.94 in 0.8 mi ENE 3.5 mph - N/A   Mist
2:03 AM 32.0 °F 28.7 °F 32.0 °F 100% 29.92 in 0.8 mi ENE 3.5 mph - N/A   Mist
2:16 AM 32.0 °F - 32.0 °F 100% 29.92 in 1.0 mi ENE 2.3 mph - N/A   Mist
2:21 AM 32.0 °F - 32.0 °F 100% 29.91 in 1.2 mi ENE 2.3 mph - N/A   Scattered Clouds
2:31 AM 32.0 °F - 32.0 °F 100% 29.91 in 1.5 mi ENE 2.3 mph - N/A   Scattered Clouds
2:36 AM 32.0 °F - 32.0 °F 100% 29.91 in 1.8 mi ENE 2.3 mph - N/A   Mostly Cloudy
2:41 AM 32.0 °F 28.7 °F 32.0 °F 100% 29.91 in 0.8 mi East 3.5 mph - N/A   Mostly Cloudy
2:58 AM 32.7 °F 29.6 °F 32.7 °F 100% 29.93 in 0.8 mi East 3.5 mph - N/A   Light Drizzle
3:11 AM 32.0 °F 26.4 °F 32.0 °F 100% 29.89 in 0.8 mi East 5.8 mph - N/A Rain Light Rain
3:22 AM 32.0 °F 25.6 °F 32.0 °F 100% 29.88 in 1.0 mi East 6.9 mph - N/A Rain Light Rain
3:30 AM 32.0 °F 28.7 °F 32.0 °F 100% 29.88 in 1.0 mi East 3.5 mph - N/A   Light Drizzle
3:38 AM 32.0 °F 28.7 °F 32.0 °F 100% 29.88 in 1.0 mi East 3.5 mph - N/A   Light Drizzle
3:43 AM 32.0 °F 26.4 °F 32.0 °F 100% 29.88 in 1.5 mi ESE 5.8 mph - N/A   Light Drizzle
3:51 AM 32.0 °F 25.6 °F 32.0 °F 100% 29.86 in 1.5 mi ESE 6.9 mph - N/A   Light Drizzle
3:56 AM 32.0 °F 26.4 °F 32.0 °F 100% 29.86 in 2.0 mi ESE 5.8 mph - N/A   Light Drizzle
3:58 AM 33.3 °F 27.9 °F 33.3 °F 100% 29.88 in 2.0 mi ESE 5.8 mph - 0.00 in   Light Drizzle
4:00 AM 32.0 °F 26.4 °F 32.0 °F 100% 29.86 in 2.0 mi ESE 5.8 mph - N/A   Overcast
4:15 AM 33.8 °F 27.7 °F 33.8 °F 100% 29.85 in 2.0 mi ESE 6.9 mph - N/A   Overcast
4:20 AM 33.8 °F 27.0 °F 33.8 °F 100% 29.84 in 2.5 mi ESE 8.1 mph - N/A   Overcast
4:58 AM 34.5 °F 27.9 °F 34.5 °F 100% 29.83 in 2.5 mi ESE 8.1 mph - 0.00 in   Mostly Cloudy
5:08 AM 35.6 °F 29.9 °F 35.6 °F 100% 29.81 in 3.0 mi SE 6.9 mph - N/A   Mostly Cloudy
5:58 AM 36.5 °F 32.7 °F 36.5 °F 100% 29.79 in 3.0 mi ESE 4.6 mph - N/A   Overcast
6:23 AM 37.4 °F 32.8 °F 37.4 °F 100% 29.78 in 7.0 mi South 5.8 mph - N/A   Overcast
6:28 AM 37.4 °F 32.8 °F 37.4 °F 100% 29.78 in 8.0 mi South 5.8 mph - N/A Rain Light Rain
6:38 AM 39.2 °F 35.0 °F 39.2 °F 100% 29.77 in 10.0 mi Variable 5.8 mph - N/A   Overcast
6:41 AM 39.2 °F 33.6 °F 39.2 °F 100% 29.76 in 9.0 mi South 8.1 mph - N/A Rain Light Rain
6:51 AM 39.2 °F 34.2 °F 39.2 °F 100% 29.77 in 10.0 mi SSW 6.9 mph - N/A Rain Light Rain
6:58 AM 40.3 °F 34.9 °F 40.3 °F 100% 29.82 in 10.0 mi SSW 8.1 mph - 0.00 in   Light Drizzle
7:13 AM 39.2 °F 35.0 °F 39.2 °F 100% 29.83 in 7.0 mi West 5.8 mph - N/A Rain Light Rain
7:18 AM 39.2 °F 35.0 °F 39.2 °F 100% 29.80 in 5.0 mi Variable 5.8 mph - N/A Rain Light Rain
7:48 AM 39.2 °F 37.0 °F 39.2 °F 100% 29.82 in 5.0 mi NW 3.5 mph - N/A   Light Drizzle
7:58 AM 38.8 °F 36.5 °F 38.8 °F 100% 29.82 in 4.0 mi North 3.5 mph - 0.02 in Rain Light Rain
8:09 AM 39.2 °F - 39.2 °F 100% 29.82 in 4.0 mi NW 2.3 mph - N/A   Overcast
8:31 AM 39.2 °F 34.2 °F 39.2 °F 100% 29.83 in 3.0 mi NNW 6.9 mph - N/A Rain Light Rain
8:36 AM 39.2 °F 33.0 °F 39.2 °F 100% 29.83 in 3.0 mi North 9.2 mph - N/A Rain Light Rain
8:58 AM 37.8 °F 34.2 °F 37.8 °F 100% 29.84 in 4.0 mi NNE 4.6 mph - 0.00 in Rain Light Rain
9:38 AM 37.4 °F 32.8 °F 37.4 °F 100% 29.84 in 2.5 mi North 5.8 mph - N/A Rain Heavy Rain
9:43 AM 37.4 °F 32.1 °F 37.4 °F 100% 29.85 in 2.0 mi NNW 6.9 mph - N/A Rain Light Rain
9:48 AM 37.4 °F 32.1 °F 37.4 °F 100% 29.85 in 2.5 mi NNW 6.9 mph - N/A Rain Light Rain
9:53 AM 37.4 °F 33.8 °F 37.4 °F 100% 29.84 in 2.0 mi North 4.6 mph - N/A Rain Light Rain
9:58 AM 36.7 °F 32.9 °F 36.7 °F 100% 29.87 in 1.8 mi North 4.6 mph - 0.12 in Rain Light Rain
10:03 AM 37.4 °F 34.9 °F 37.4 °F 100% 29.84 in 2.0 mi NNE 3.5 mph - N/A Rain Light Rain
10:08 AM 37.4 °F - 37.4 °F 100% 29.84 in 2.5 mi NE 2.3 mph - N/A Rain Light Rain
10:13 AM 37.4 °F 34.9 °F 37.4 °F 100% 29.84 in 3.0 mi NE 3.5 mph - N/A Rain Light Rain
10:23 AM 37.4 °F - 37.4 °F 100% 29.85 in 2.5 mi NE 2.3 mph - N/A Rain Light Rain
10:33 AM 37.4 °F - 37.4 °F 100% 29.85 in 3.0 mi ENE 2.3 mph - N/A Rain Light Rain
10:38 AM 37.4 °F 34.9 °F 37.4 °F 100% 29.84 in 2.0 mi East 3.5 mph - N/A Rain Light Rain
10:43 AM 37.4 °F - 37.4 °F 100% 29.84 in 1.8 mi ENE 2.3 mph - N/A Rain Light Rain
10:48 AM 37.4 °F - 37.4 °F 100% 29.85 in 2.5 mi Calm Calm - N/A Rain Light Rain
10:53 AM 37.4 °F - 37.4 °F 100% 29.84 in 3.0 mi East 2.3 mph - N/A Rain Light Rain
10:58 AM 37.6 °F - 37.6 °F 100% 29.86 in 3.0 mi East 2.3 mph - 0.08 in Rain Light Rain
11:03 AM 37.4 °F 34.9 °F 37.4 °F 100% 29.83 in 2.5 mi East 3.5 mph - N/A Rain Light Rain
11:08 AM 37.4 °F - 37.4 °F 100% 29.83 in 3.0 mi ESE 2.3 mph - N/A Rain Light Rain
11:38 AM 39.2 °F - 39.2 °F 100% 29.85 in 2.5 mi West 2.3 mph - N/A Rain Light Rain
11:52 AM 39.2 °F - 39.2 °F 100% 29.84 in 2.5 mi Calm Calm - N/A   Overcast
11:57 AM 39.2 °F - 39.2 °F 100% 29.84 in 2.0 mi Calm Calm - N/A   Overcast
11:58 AM 38.5 °F - 38.5 °F 100% 29.86 in 2.0 mi Calm Calm - 0.03 in   Overcast
12:00 PM 39.2 °F - 39.2 °F 100% 29.85 in 1.8 mi West 2.3 mph - N/A   Light Drizzle
12:05 PM 39.2 °F - 39.2 °F 100% 29.84 in 1.2 mi West 2.3 mph - N/A   Light Drizzle
12:10 PM 39.2 °F - 39.2 °F 100% 29.84 in 1.0 mi NW 1.2 mph - N/A   Light Drizzle
12:15 PM 39.2 °F - 39.2 °F 100% 29.84 in 0.8 mi WSW 1.2 mph - N/A Rain Light Rain
12:20 PM 39.2 °F - 39.2 °F 100% 29.84 in 1.0 mi West 2.3 mph - N/A Rain Light Rain
12:25 PM 39.2 °F - 39.2 °F 100% 29.84 in 0.8 mi Calm Calm - N/A   Drizzle
12:30 PM 39.2 °F - 39.2 °F 100% 29.84 in 0.8 mi WNW 1.2 mph - N/A Rain Light Rain
12:35 PM 39.2 °F - 39.2 °F 100% 29.83 in 1.0 mi West 1.2 mph - N/A Rain Light Rain
12:40 PM 39.2 °F - 39.2 °F 100% 29.83 in 1.2 mi WNW 1.2 mph - N/A Rain Light Rain
12:45 PM 39.2 °F - 39.2 °F 100% 29.83 in 1.5 mi WSW 2.3 mph - N/A   Light Drizzle
12:53 PM 39.2 °F 37.0 °F 39.2 °F 100% 29.83 in 1.5 mi West 3.5 mph - N/A   Mostly Cloudy
12:57 PM 39.2 °F - 39.2 °F 100% 29.83 in 1.8 mi West 2.3 mph - N/A   Light Drizzle
12:58 PM 38.8 °F - 38.8 °F 100% 29.83 in 1.8 mi West 2.3 mph - 0.02 in   Light Drizzle
1:03 PM 39.2 °F - 39.2 °F 100% 29.82 in 2.5 mi West 2.3 mph - N/A Rain Light Rain
1:08 PM 39.2 °F - 39.2 °F 100% 29.83 in 2.0 mi West 2.3 mph - N/A Rain Light Rain
1:13 PM 39.2 °F 37.0 °F 39.2 °F 100% 29.83 in 2.0 mi West 3.5 mph - N/A Rain Light Rain
1:18 PM 39.2 °F 37.0 °F 39.2 °F 100% 29.83 in 2.5 mi WNW 3.5 mph - N/A Rain Light Rain
1:23 PM 39.2 °F 37.0 °F 39.2 °F 100% 29.83 in 3.0 mi West 3.5 mph - N/A Rain Light Rain
1:28 PM 39.2 °F 37.0 °F 39.2 °F 100% 29.84 in 3.0 mi WNW 3.5 mph - N/A Rain Light Rain
1:33 PM 39.2 °F 35.9 °F 39.2 °F 100% 29.84 in 4.0 mi WNW 4.6 mph - N/A Rain Light Rain
1:43 PM 39.2 °F 33.0 °F 39.2 °F 100% 29.85 in 7.0 mi WNW 9.2 mph - N/A   Light Drizzle
1:55 PM 37.4 °F 30.3 °F 37.4 °F 100% 29.85 in 4.0 mi WNW 10.4 mph - N/A   Overcast
1:58 PM 37.6 °F 31.0 °F 37.6 °F 100% 29.87 in 4.0 mi WNW 9.2 mph - 0.00 in   Overcast
2:08 PM 37.4 °F 28.9 °F 37.4 °F 100% 29.86 in 5.0 mi NW 13.8 mph - N/A   Overcast
2:18 PM 35.6 °F 28.0 °F 35.6 °F 100% 29.86 in 8.0 mi NW 10.4 mph - N/A   Overcast
2:23 PM 35.6 °F 27.5 °F 35.6 °F 100% 29.86 in 10.0 mi NNW 11.5 mph - N/A   Overcast
2:28 PM 35.6 °F 27.5 °F 35.6 °F 100% 29.86 in 10.0 mi NW 11.5 mph - N/A   Overcast
2:33 PM 35.6 °F 27.5 °F 35.6 °F 100% 29.86 in 10.0 mi NW 11.5 mph - N/A   Overcast
2:43 PM 35.6 °F 28.0 °F 35.6 °F 100% 29.87 in 10.0 mi NW 10.4 mph - N/A Rain Light Rain
2:58 PM 35.1 °F 27.9 °F 35.1 °F 100% 29.91 in 10.0 mi NW 9.2 mph - 0.00 in Rain Light Rain
3:03 PM 35.6 °F 28.0 °F 35.6 °F 100% 29.88 in 8.0 mi NW 10.4 mph - N/A Rain Light Rain
3:33 PM 33.8 °F 27.0 °F 33.8 °F 100% 29.90 in 7.0 mi NW 8.1 mph - N/A Rain Rain
3:48 PM 33.8 °F 26.4 °F 33.8 °F 100% 29.90 in 10.0 mi NW 9.2 mph - N/A Rain Light Rain
3:58 PM 34.3 °F 29.2 °F 34.3 °F 100% 29.94 in 10.0 mi NW 5.8 mph - 0.04 in Rain Light Rain
4:18 PM 33.8 °F 25.3 °F 33.8 °F 100% 29.92 in 10.0 mi NW 11.5 mph - N/A Rain Light Rain
4:58 PM 33.8 °F 26.4 °F 33.8 °F 100% 29.96 in 10.0 mi NW 9.2 mph - 0.01 in Rain Light Rain
5:33 PM 32.0 °F 24.8 °F 32.0 °F 100% 29.95 in 10.0 mi NNW 8.1 mph - N/A Rain Light Rain
5:58 PM 33.1 °F 24.9 °F 33.1 °F 100% 29.98 in 10.0 mi NNW 10.4 mph - 0.00 in Rain Light Rain
6:58 PM 32.2 °F 24.4 °F 32.2 °F 100% 30.02 in 10.0 mi NW 9.2 mph - 0.02 in Rain Light Rain
7:58 PM 31.8 °F 23.9 °F 31.8 °F 100% 30.05 in 10.0 mi NNW 9.2 mph - 0.00 in Rain Light Freezing Rain
8:18 PM 32.0 °F 22.5 °F 32.0 °F 100% 30.02 in 10.0 mi NNW 12.7 mph - N/A Rain Light Freezing Rain
8:29 PM 32.0 °F 22.1 °F 32.0 °F 100% 30.02 in 9.0 mi NNW 13.8 mph - N/A   Light Freezing Drizzle
8:31 PM 32.0 °F 22.5 °F 32.0 °F 100% 30.02 in 9.0 mi NNW 12.7 mph - N/A   Overcast
8:36 PM 32.0 °F 22.5 °F 32.0 °F 100% 30.02 in 8.0 mi North 12.7 mph - N/A   Overcast
8:58 PM 31.3 °F 23.3 °F 31.1 °F 99% 30.06 in 7.0 mi NNW 9.2 mph - 0.01 in   Overcast
9:04 PM 32.0 °F 23.0 °F 32.0 °F 100% 30.04 in 7.0 mi NNW 11.5 mph - N/A Rain Light Freezing Rain
9:16 PM 32.0 °F 22.5 °F 32.0 °F 100% 30.03 in 6.0 mi North 12.7 mph - N/A Rain Light Freezing Rain
9:20 PM 32.0 °F 23.0 °F 32.0 °F 100% 30.03 in 5.0 mi North 11.5 mph - N/A Rain Light Freezing Rain
9:22 PM 32.0 °F 23.6 °F 32.0 °F 100% 30.03 in 5.0 mi North 10.4 mph - N/A Rain Light Freezing Rain
9:29 PM 32.0 °F 23.6 °F 32.0 °F 100% 30.04 in 5.0 mi North 10.4 mph - N/A Rain Light Freezing Rain
9:48 PM 30.2 °F 22.6 °F 30.2 °F 100% 30.05 in 6.0 mi NNW 8.1 mph - N/A Rain Light Freezing Rain
9:58 PM 30.2 °F 21.3 °F 29.8 °F 99% 30.09 in 5.0 mi NNW 10.4 mph - 0.01 in Rain Light Freezing Rain
10:22 PM 30.2 °F 21.3 °F 30.2 °F 100% 30.07 in 5.0 mi NNW 10.4 mph - N/A Rain Light Freezing Rain
10:27 PM 30.2 °F 21.3 °F 30.2 °F 100% 30.06 in 5.0 mi NNW 10.4 mph - N/A Snow Snow Grains
10:28 PM 30.2 °F 21.3 °F 30.2 °F 100% 30.06 in 5.0 mi NNW 10.4 mph - N/A Rain Light Freezing Rain
10:43 PM 30.2 °F 19.8 °F 28.4 °F 93% 30.06 in 6.0 mi NNW 13.8 mph - N/A Snow Snow Grains
10:58 PM 29.3 °F 18.6 °F 29.1 °F 99% 30.09 in 7.0 mi NNW 13.8 mph - 0.01 in Snow Snow Grains
11:04 PM 28.4 °F 18.5 °F 28.4 °F 100% 30.07 in 7.0 mi NNW 11.5 mph - N/A   Ice Pellets
11:28 PM 28.4 °F 17.0 °F 28.4 °F 100% 30.07 in 8.0 mi NNW 15.0 mph - N/A   Ice Pellets
11:38 PM 28.4 °F 18.5 °F 28.4 °F 100% 30.08 in 9.0 mi NNW 11.5 mph - N/A   Ice Pellets
11:58 PM 28.9 °F 18.2 °F 28.8 °F 99% 30.09 in 6.0 mi NNW 13.8 mph - 0.00 in Snow Light Snow